Date String (YYYY-MM-DD hh:mm:ss) UTC,Instrument flags,absolute air pressure of the measurement (hPa),sample flow rate (lpm),inlet stack bypass flow (lpm),air temperature of the measurement (°C),ambient temperature measured by the external sensor (°C),aerosol sample conditioner tube jacket temperature (°C),OPC LED temperature (°C),internal box temperature (°C),relative humidity of the measurement (%),span deviation,mass concentration of particles derived from Lorenz-Mie calculation of OPC scattering (μg/m³),mass concentration of particles derived from Lorenz-Mie calculation of OPC scattering (μg/m³),mass concentration of particles derived from Lorenz-Mie calculation of OPC scattering (μg/m³)
DateTimeUTC,F1_M11,P_M11,Q1_M11,Q2_M11,T1_M11,T2_M11,T3_M11,T4_M11,T5_M11,U1_M11,ZSPAN_M11,X0_M11,X2_M11,X1_M11
2024-02-13 11:00:00,SystemResetWarning,0826.2,4.98,000.00,018.3,017.4,000.0,027.0,020.0,15.3,0000.4,0012.41,0008.83,0008.33
2024-02-13 11:01:00,SystemResetWarning,0826.3,5.00,000.00,018.3,017.4,000.0,027.0,020.0,15.4,0000.5,0013.63,0009.07,0008.55
2024-02-13 11:02:00,SystemResetWarning,0826.3,5.00,000.00,018.3,017.4,000.0,027.0,020.0,15.5,0000.1,0013.90,0009.19,0008.65
2024-02-13 11:03:00,SystemResetWarning,0826.2,5.00,000.00,018.3,017.4,000.0,027.0,020.0,15.5,0000.0,0013.88,0009.14,0008.59
2024-02-13 11:04:00,SystemResetWarning,0826.3,5.01,000.00,018.3,017.4,000.0,027.0,020.0,15.4,0000.0,0013.73,0009.04,0008.48
2024-02-13 11:05:00,SystemResetWarning,0826.2,5.00,000.00,018.3,017.4,000.0,027.0,020.0,15.2,0000.4,0013.99,0008.88,0008.34
2024-02-13 11:06:00,SystemResetWarning,0826.2,5.00,000.00,018.3,017.4,000.0,027.0,020.0,15.2,0002.2,0013.75,0008.73,0008.22
2024-02-13 11:07:00,SystemResetWarning,0826.2,4.99,000.00,018.3,017.3,000.0,027.0,020.0,15.2,0000.0,0013.38,0008.49,0008.04
2024-02-13 11:08:00,SystemResetWarning,0826.2,5.00,000.00,018.3,017.3,000.0,027.0,020.0,15.2,0000.0,0012.99,0008.22,0007.80
2024-02-13 11:09:00,SystemResetWarning,0826.3,5.00,000.00,018.3,017.3,000.0,027.0,020.0,15.0,0000.0,0012.95,0008.14,0007.74
2024-02-13 11:10:00,SystemResetWarning,0826.3,5.00,000.00,018.3,017.3,000.0,027.0,020.0,15.0,0000.0,0013.16,0008.06,0007.68
2024-02-13 11:11:00,SystemResetWarning,0826.4,5.00,000.00,018.3,017.3,000.0,027.0,020.0,15.1,0000.0,0012.70,0007.90,0007.53
2024-02-13 11:12:00,SystemResetWarning,0826.4,4.99,000.00,018.3,017.3,000.0,027.0,020.0,15.3,0000.0,0011.66,0007.80,0007.42
2024-02-13 11:13:00,SystemResetWarning,0826.4,5.00,000.00,018.3,017.3,000.0,027.0,020.0,15.2,0000.0,0012.05,0007.74,0007.39
2024-02-13 11:14:00,SystemResetWarning,0826.4,5.01,000.00,018.2,017.3,000.0,027.0,020.0,15.1,0000.0,0012.06,0007.69,0007.33
2024-02-13 11:15:00,SystemResetWarning,0826.3,5.01,000.00,018.2,017.3,000.0,027.0,020.0,15.1,0000.0,0012.12,0007.66,0007.27
2024-02-13 11:16:00,SystemResetWarning,0826.3,4.99,000.00,018.2,017.2,000.0,027.0,020.0,15.1,0000.0,0011.63,0007.60,0007.21
2024-02-13 11:17:00,SystemResetWarning,0826.4,4.99,000.00,018.2,017.2,000.0,027.0,020.0,15.1,0000.0,0011.60,0007.54,0007.13
2024-02-13 11:18:00,SystemResetWarning,0826.3,5.01,000.00,018.2,017.2,000.0,027.0,020.0,15.2,0000.0,0011.54,0007.54,0007.13
2024-02-13 11:19:00,SystemResetWarning,0826.2,5.01,000.00,018.2,017.2,000.0,027.0,020.0,15.3,0000.0,0011.52,0007.51,0007.09
2024-02-13 11:20:00,SystemResetWarning,0826.4,4.99,000.00,018.2,017.3,000.0,027.0,020.0,15.2,0000.0,0011.40,0007.42,0006.99
2024-02-13 11:21:00,SystemResetWarning,0826.4,5.00,000.00,018.2,017.3,000.0,026.9,020.0,14.7,0000.0,0010.93,0007.32,0006.91
2024-02-13 11:22:00,SystemResetWarning,0826.4,5.00,000.00,018.2,017.3,000.0,027.0,020.0,14.9,0000.0,0010.62,0007.27,0006.86
2024-02-13 11:23:00,SystemResetWarning,0826.4,4.99,000.00,018.2,017.3,000.0,027.0,020.0,14.8,0000.0,0010.55,0007.22,0006.83
2024-02-13 11:24:00,SystemResetWarning,0826.4,5.01,000.00,018.2,017.3,000.0,027.0,020.0,14.8,0000.0,0010.14,0007.19,0006.80
2024-02-13 11:25:00,SystemResetWarning,0826.4,5.01,000.00,018.2,017.2,000.0,027.0,020.0,14.9,0000.0,0009.97,0007.18,0006.82
2024-02-13 11:26:00,SystemResetWarning,0826.4,4.99,000.00,018.2,017.2,000.0,027.0,020.0,14.9,0000.0,0009.90,0007.18,0006.85
2024-02-13 11:27:00,SystemResetWarning,0826.3,4.99,000.00,018.2,017.2,000.0,027.0,020.0,15.0,0000.0,0009.81,0007.17,0006.86
2024-02-13 11:28:00,SystemResetWarning,0826.3,5.01,000.00,018.3,017.5,000.0,027.0,020.1,14.9,0000.0,0010.25,0007.16,0006.84
2024-02-13 11:29:00,SystemResetWarning,0826.2,5.01,000.00,018.4,018.3,000.0,027.1,020.5,14.8,0000.0,0010.25,0007.07,0006.76
2024-02-13 11:30:00,SystemResetWarning,0826.4,4.99,000.00,018.6,018.8,000.0,027.1,020.7,14.7,0000.0,0010.10,0006.93,0006.64
2024-02-13 11:31:00,SystemResetWarning,0826.4,4.99,000.00,018.6,018.7,000.0,027.0,020.5,14.7,0000.0,0009.99,0006.85,0006.58
2024-02-13 11:32:00,SystemResetWarning,0826.6,4.99,000.00,018.6,018.5,000.0,026.9,020.3,14.6,0000.0,0010.06,0006.80,0006.54
2024-02-13 11:33:00,SystemResetWarning,0826.5,5.02,000.00,018.5,018.4,000.0,026.9,020.1,14.8,0000.0,0010.71,0006.78,0006.49
2024-02-13 11:34:00,SystemResetWarning,0826.4,5.00,000.00,018.5,018.2,000.0,026.8,020.0,14.9,0000.0,0011.16,0006.80,0006.47
2024-02-13 11:35:00,SystemResetWarning,0826.4,5.00,000.00,018.4,018.1,000.0,026.9,020.0,14.8,0000.0,0011.15,0006.78,0006.43
2024-02-13 11:36:00,SystemResetWarning,0826.5,4.99,000.00,018.4,018.0,000.0,026.9,020.0,14.9,0000.0,0011.00,0006.68,0006.33
2024-02-13 11:37:00,SystemResetWarning,0826.5,5.00,000.00,018.4,017.9,000.0,026.9,020.0,14.9,0000.0,0010.99,0006.61,0006.25
2024-02-13 11:38:00,SystemResetWarning,0826.6,5.00,000.00,018.4,017.9,000.0,026.9,020.0,14.9,0000.0,0011.53,0006.58,0006.20
2024-02-13 11:39:00,SystemResetWarning,0826.6,5.01,000.00,018.3,017.8,000.0,026.8,020.0,14.7,0000.0,0011.52,0006.60,0006.21
2024-02-13 11:40:00,SystemResetWarning,0826.6,5.01,000.00,018.3,017.8,000.0,026.9,020.0,14.8,0000.0,0011.47,0006.65,0006.24
2024-02-13 11:41:00,SystemResetWarning,0826.6,4.99,000.00,018.3,017.7,000.0,026.9,020.0,14.8,0000.0,0011.62,0006.71,0006.29
2024-02-13 11:42:00,SystemResetWarning,0826.6,4.99,000.00,018.3,017.7,000.0,026.9,020.0,14.8,0000.0,0012.06,0006.75,0006.33
2024-02-13 11:43:00,SystemResetWarning,0826.5,5.01,000.00,018.3,017.7,000.0,026.9,020.0,14.8,0000.0,0012.43,0006.79,0006.36
2024-02-13 11:44:00,SystemResetWarning,0826.5,5.02,000.00,018.3,017.6,000.0,026.9,020.0,14.7,0000.0,0011.85,0006.80,0006.40
2024-02-13 11:45:00,SystemResetWarning,0826.5,4.99,000.00,018.3,017.6,000.0,026.9,020.0,14.7,0000.0,0011.44,0006.74,0006.38
2024-02-13 11:46:00,SystemResetWarning,0826.6,5.00,000.00,018.3,017.6,000.0,026.9,020.0,14.5,0000.0,0011.23,0006.69,0006.37
2024-02-13 11:47:00,SystemResetWarning,0826.6,5.00,000.00,018.3,017.6,000.0,026.9,020.0,14.6,0000.0,0011.27,0006.69,0006.36
2024-02-13 11:48:00,SystemResetWarning,0826.6,5.00,000.00,018.2,017.5,000.0,026.9,020.0,14.6,0000.0,0011.19,0006.64,0006.33
2024-02-13 11:49:00,SystemResetWarning,0826.6,5.00,000.00,018.2,017.5,000.0,026.9,020.0,14.6,0000.0,0010.59,0006.61,0006.30
2024-02-13 11:50:00,SystemResetWarning,0826.5,5.00,000.00,018.2,017.5,000.0,026.9,020.0,14.6,0000.0,0010.20,0006.57,0006.27
2024-02-13 11:51:00,SystemResetWarning,0826.5,5.00,000.00,018.2,017.4,000.0,026.9,020.0,14.6,0000.0,0010.11,0006.49,0006.18
2024-02-13 11:52:00,SystemResetWarning,0826.5,5.00,000.00,018.2,017.4,000.0,026.9,020.0,14.6,0000.0,0010.66,0006.43,0006.09
2024-02-13 11:53:00,SystemResetWarning,0826.4,5.01,000.00,018.3,017.4,000.0,026.9,020.0,14.6,0000.0,0010.17,0006.31,0005.98
2024-02-13 11:54:00,SystemResetWarning,0826.4,5.01,000.00,018.3,017.4,000.0,026.9,020.0,14.5,0000.0,0009.58,0006.21,0005.89
2024-02-13 11:55:00,SystemResetWarning,0826.5,5.01,000.00,018.2,017.4,000.0,026.9,020.0,14.5,0000.0,0009.37,0006.11,0005.78
2024-02-13 11:56:00,SystemResetWarning,0826.5,4.99,000.00,018.2,017.4,000.0,026.9,020.0,14.5,0000.0,0009.36,0006.05,0005.69
2024-02-13 11:57:00,SystemResetWarning,0826.5,4.99,000.00,018.2,017.4,000.0,026.9,020.0,14.5,0000.0,0009.33,0006.01,0005.64
2024-02-13 11:58:00,SystemResetWarning,0826.6,5.00,000.00,018.2,017.4,000.0,026.9,020.0,14.5,0000.0,0009.25,0005.95,0005.58
2024-02-13 11:59:00,SystemResetWarning,0826.6,5.01,000.00,018.2,017.4,000.0,026.9,020.0,14.6,0000.0,0009.20,0005.91,0005.52
